Location: NJAA Observatory
(40.6819°N, 74.8979°W)
Time: 12:03:06
(UTC-04:00)

Landsat 5 - Visible Passes

Search period start: 25 June 2016 00:00
Search period end: 05 July 2016 00:00
Orbit: 531 x 657 km, 98.0° (Epoch: 24 June)

Date Brightness Start Highest point End Pass type
(mag) Time Alt. Az. Time Alt. Az. Time Alt. Az.
25 Jun 4.3 00:14:14 43° ENE 00:14:17 43° ENE 00:18:33 10° N visible
25 Jun 5.7 01:50:52 17° WNW 01:50:52 17° WNW 01:53:03 10° NW visible
26 Jun 4.0 00:23:40 54° ENE 00:23:40 54° ENE 00:27:59 10° N visible
26 Jun 5.9 02:00:18 13° WNW 02:00:18 13° WNW 02:01:49 10° WNW visible
27 Jun 3.8 00:33:06 67° NE 00:33:06 67° NE 00:37:23 10° N visible
27 Jun 6.1 02:09:44 10° WNW 02:09:44 10° WNW 02:10:07 10° WNW visible
28 Jun 3.7 00:42:32 76° N 00:42:32 76° N 00:46:45 10° NNW visible
28 Jun 6.0 23:15:21 10° ENE 23:16:38 12° ENE 23:18:10 10° NE visible
29 Jun 3.8 00:51:59 68° NW 00:51:59 68° NW 00:56:05 10° NNW visible
29 Jun 5.8 23:24:48 13° ENE 23:25:50 14° ENE 23:28:15 10° NNE visible
30 Jun 4.1 01:01:25 55° WNW 01:01:25 55° WNW 01:05:22 10° NNW visible
30 Jun 5.6 23:34:14 17° ENE 23:35:04 18° ENE 23:38:04 10° NNE visible
01 Jul 4.4 01:10:52 43° WNW 01:10:52 43° WNW 01:14:37 10° NNW visible
01 Jul 5.4 23:43:41 21° ENE 23:44:18 22° ENE 23:47:44 10° NNE visible
02 Jul 4.8 01:20:19 35° WNW 01:20:19 35° WNW 01:23:49 10° NNW visible
02 Jul 5.1 23:53:08 26° ENE 23:53:33 26° ENE 23:57:19 10° NNE visible
03 Jul 5.1 01:29:46 28° WNW 01:29:46 28° WNW 01:32:57 10° NW visible
04 Jul 4.8 00:02:35 32° ENE 00:02:47 32° ENE 00:06:50 10° N visible
04 Jul 5.4 01:39:13 23° WNW 01:39:13 23° WNW 01:42:03 10° NW visible
